Location: Newark
(49.3000°N, 9.4667°E)
Time: 23:35:55
(UTC+00:00)

Transit 2A Rocket - Pass Details

Date: 27 May 2019
Orbit: 586 x 917 km, 66.7° (Epoch: 18 June)

Event Time Altitude Azimuth Distance (km) Brightness Sun altitude
Rises 02:20:50 0° 309° (NW) 3,374 8.3 -8.8°
Reaches altitude 10° 02:25:04 10° 280° (W) 2,350 7.2 -8.3°
Maximum altitude 02:26:54 12° 260° (W) 2,188 6.9 -8.1°
Drops below altitude 10° 02:28:41 10° 239° (WSW) 2,266 6.8 -7.9°
Enters shadow 02:29:07 - 235° (SW) 2,321 6.8 -7.8°
